Flag for Canada Weather past 2 weeks in Pond Inlet, Nunavut Territory, Canada

Now
-24 °F

Partly cloudy.


Feels Like: -43 °F
Forecast: -26 / -12 °F
Wind: 8 mph from South

Location: Pond Inlet

Current Time: Mar 31, 2015 at 11:38:29 PM

Latest Report: Mar 31, 2015 at 11:00 PM


Visibility: 9 mi

Pressure: 30.12 "Hg

Humidity: 75%

Dew point: -29 °F

Location of Pond InletLocation

Historic Weather in Pond Inlet — Graph

°F

Pond Inlet temperature yesterday

Maximum temperature yesterday: -17 °F (at 12:00 PM)
Minimum temperature yesterday: -22 °F (at 2:00 AM)
Average temperature yesterday: -20 °F

Past Weeks' High & Low Weather Summary

 TemperatureHumidityPressure
High12 °F (Mar 17, 6:00 AM)92% (Mar 16, 10:00 PM)30.23 "Hg (Mar 16, 10:00 PM)
Low-27 °F (Mar 22, 5:00 AM)67% (Mar 27, 7:00 AM)29.33 "Hg (Mar 16, 10:00 PM)
Average-15 °F77%29.78 "Hg
* Reported Mar 16 10:00 PM — Mar 31 10:00 PM, Pond Inlet, Weather by CustomWeather, © 2015

Note: Actual official high and low records may vary slightly from our data, if they occured in-between our weather recording intervals... More about our weather records

Advertising

Pond Inlet weather history for previous 24 hours

 ConditionsComfort  
Time TempWeatherWind HumidityBarometerVisibility
10:00 PM
Tue, Mar 31
-24 °FClear.8 mph75%30.11 "Hg9 mi
9:00 PM-24 °FClear.6 mph75%30.10 "Hg9 mi
8:00 PM-22 °FClear.7 mph75%30.09 "Hg9 mi
7:00 PM-20 °FPartly sunny.6 mph75%30.09 "Hg40 mi
6:00 PM-18 °FPartly sunny.6 mph75%30.08 "Hg40 mi
5:00 PM-20 °FScattered clouds.5 mph75%30.06 "Hg40 mi
4:00 PM-22 °FScattered clouds.5 mph75%30.06 "Hg40 mi
3:00 PM-20 °FScattered clouds.3 mph75%30.03 "Hg40 mi
2:00 PM-17 °FPartly sunny.2 mph76%30.01 "Hg40 mi
1:00 PM-18 °FScattered clouds.3 mph75%30.01 "Hg40 mi
12:00 PM-18 °FScattered clouds.3 mph75%30.00 "Hg40 mi
11:00 AM-22 °FScattered clouds.6 mph75%29.98 "Hg40 mi
10:00 AM-22 °FPassing clouds.2 mph68%29.97 "Hg9 mi
9:03 AM-18 °FSunny.No wind75%29.94 "Hg1 mi
8:00 AM-24 °FSunny.2 mph75%29.93 "Hg9 mi
7:00 AM-26 °FSunny.No wind75%29.91 "Hg9 mi
6:00 AM-24 °FSunny.No wind68%29.89 "Hg9 mi
5:00 AM-24 °FClear.No wind68%29.87 "Hg9 mi
4:00 AM-22 °FClear.No wind75%29.84 "Hg9 mi
3:00 AM-20 °FClear.2 mph75%29.82 "Hg9 mi
2:00 AM-18 °FClear.5 mph75%29.80 "Hg9 mi
1:00 AM-20 °FClear.6 mph75%29.78 "Hg9 mi
12:00 AM-20 °FClear.6 mph68%29.76 "Hg9 mi
11:00 PM
Mon, Mar 30
-20 °FClear.2 mph75%29.74 "Hg9 mi
Weather by CustomWeather, © 2015

See weather overviewHow to use our weather pages